Space Coast Regional Airport
KTIX : now visible

Airfield :











YOU CAN JOIN US ON...

 
LOGIN :

Register | Disclaimer

   EN    FR    IT 

 









Legend :    VFR   Marginal VFR   IFR   Intensive IFR   Very Intensive IFR
Visi :
Ceiling :
>= 8 km
>= 3000ft
5 to 8 km
1000 to 3000 ft
1500m to 5 km
500 to 1000 ft
800 to 1500m
200 to 500 ft
< 800m
< 200 ft
Symbols :   Thunderstorms  Fog  Heavy snow  Heavy precipitations  Wind > 20 kt






- Airport Elevation : 34 ft


KTIX - Space Coast Regional

CURRENT METAR :
  • 220152Z 33015KT 7SM BKN040 08/M03 A3021

EXPIRED METARs :
  • 220048Z 33014KT 7SM SCT038 08/M01 A3021
  • 212350Z 35016KT 7SM CLR 09/M01 A3020

TAF KTIX
Valid from the 22 at 00:00 until the 23 at 00:00 UTC


212321Z 2200/2224 35017G28KT P6SM SCT035
FM221500 36018G28KT P6SM BKN035 AMD NOT SKED 2202/2212



MET'MAP, your aeronautical weather chart ! - Copyright ORBIFLY December 2007 - Disclaimer

ORBIFLY MET'MAP TEAM :

Programming & Development : Alexandra Zaïnal
Concept & original design : Baudouin d'Aumeries
Assistance for programming : Marc-Olivier Méhu
Technical & hardware support : Manuel Goepfert

Contact : metmap@orbifly.com




SOURCES & CREDITS :

   NOAA       Earth
Advisory